Location: Hertford
(51.8000°N, 0.0667°W)
Time: 12:32:49
(UTC+00:00)

OBJECT-B - Pass Details

Date: 18 September 2020
Orbit: 421 x 433 km, 97.0° (Epoch: 09 October)

Event Time Altitude Azimuth Distance (km) Brightness Sun altitude
Exits shadow 20:34:37 30° 235° (SW) 800 2.3 -22.3°
Maximum altitude 20:35:20 33° 263° (W) 735 2.3 -22.3°
Drops below altitude 10° 20:38:20 10° 330° (NNW) 1,524 4.5 -22.7°
Sets 20:40:28 0° 340° (NNW) 2,398 5.5 -23.0°
